This demonstration page uses our WeatherBlox Daily Observations layout. Learn more.

Left ArrowRight Arrow

Hourly Observations for May 30, 2021

Temp ( °F °C ) Dew Point ( °F °C ) Humidity (%) Winds ( mph kmh ) Pressure ( in mb ) Visibility ( mi km ) Precip ( " mm )
12:15 am 00:15 Clear 46 7.5 43 6.2 92 92 Calm 30.23 1024 10 16 0.00 0.00
12:35 am 00:35 Clear 45 7.2 41 5 86 86 Calm 30.24 1024 10 16 0.00 0.00
12:55 am 00:55 Clear 45 7 42 5.7 92 92 Calm 30.24 1024 10 16 0.00 0.00
1:15 am 01:15 Clear 43 6.1 40 4.6 90 90 Calm 30.25 1024 10 16 0.00 0.00
1:35 am 01:35 Clear 43 6.1 40 4.7 91 91 NW 3 6 30.26 1025 10 16 0.00 0.00
1:55 am 01:55 Clear 43 6.1 41 4.8 91 91 Calm 30.26 1025 10 16 0.00 0.00
2:15 am 02:15 Clear 42 5.7 39 4 89 89 Calm 30.26 1025 10 16 0.00 0.00
2:35 am 02:35 Clear 42 5.7 40 4.4 91 91 Calm 30.26 1025 10 16 0.00 0.00
2:55 am 02:55 Clear 42 5.6 40 4.3 91 91 Calm 30.26 1025 10 16 0.00 0.00
3:15 am 03:15 Clear 41 5.1 39 4 93 93 NW 3 6 30.26 1025 10 16 0.00 0.00
3:35 am 03:35 Clear 42 5.5 40 4.3 92 92 Calm 30.26 1025 10 16 0.00 0.00
3:55 am 03:55 Clear 41 5 40 4.4 96 96 Calm 30.26 1025 10 16 0.00 0.00
4:15 am 04:15 Clear 41 5.1 40 4.3 95 95 Calm 30.26 1025 10 16 0.00 0.00
4:35 am 04:35 Clear 41 5 39 4.1 94 94 Calm 30.26 1025 10 16 0.00 0.00
4:55 am 04:55 Clear 40 4.5 38 3.5 93 93 Calm 30.27 1025 10 16 0.00 0.00
5:15 am 05:15 Clear 40 4.5 39 3.8 95 95 Calm 30.26 1025 10 16 0.00 0.00
5:35 am 05:35 Clear 39 4 38 3.2 95 95 NNW 3 6 30.27 1025 10 16 0.00 0.00
5:55 am 05:55 Clear 41 5.1 38 3.5 90 90 Calm 30.27 1025 10 16 0.00 0.00
6:15 am 06:15 Clear 40 4.5 38 3.4 93 93 Calm 30.28 1025 10 16 0.00 0.00
6:35 am 06:35 Sunny 39 4 37 2.9 93 93 Calm 30.28 1025 10 16 0.00 0.00
6:55 am 06:55 Sunny 40 4.7 39 3.7 93 93 NNW 5 7 30.29 1026 10 16 0.00 0.00
7:15 am 07:15 Sunny 43 6.1 40 4.2 88 88 NNW 3 6 30.29 1026 10 16 0.00 0.00
7:35 am 07:35 Sunny 45 7.4 40 4.7 83 83 N 3 6 30.29 1026 10 16 0.00 0.00
7:55 am 07:55 Sunny 47 8.5 41 4.8 78 78 NNW 6 9 30.30 1026 10 16 0.00 0.00
8:15 am 08:15 Sunny 49 9.6 41 5.2 74 74 NNE 5 7 30.29 1026 10 16 0.00 0.00
8:35 am 08:35 Sunny 51 10.5 41 4.8 68 68 N 7 11 30.29 1026 10 16 0.00 0.00
8:55 am 08:55 Sunny 52 11.3 42 5.3 67 67 N 7 11 30.29 1026 10 16 0.00 0.00
9:15 am 09:15 Sunny 54 12 41 4.9 62 62 NE 9 15 30.28 1026 10 16 0.00 0.00
9:35 am 09:35 Sunny 54 12.2 40 4.4 59 59 NNE 10 17 30.29 1026 10 16 0.00 0.00
9:55 am 09:55 Sunny 55 12.6 40 4.6 58 58 NNE 8 13 30.31 1026 10 16 0.00 0.00
10:15 am 10:15 Sunny 55 12.9 39 3.9 55 55 NNE 9 15 30.31 1026 10 16 0.00 0.00
10:35 am 10:35 Sunny 56 13.4 40 4.2 54 54 NE 8 13 30.31 1026 10 16 0.00 0.00
10:55 am 10:55 Sunny 57 14.1 41 4.8 54 54 N 9 15 30.31 1026 10 16 0.00 0.00
11:15 am 11:15 Sunny 58 14.2 38 3.2 48 48 N 7 11 30.31 1026 10 16 0.00 0.00
11:35 am 11:35 Sunny 59 14.8 40 4.6 51 51 N 9 15 30.30 1026 10 16 0.00 0.00
11:55 am 11:55 Sunny 59 14.8 38 3.3 46 46 N 6 9 30.30 1026 10 16 0.00 0.00
12:15 pm 12:15 Sunny 60 15.3 39 4.1 47 47 N 7 11 30.30 1026 10 16 0.00 0.00
12:35 pm 12:35 Sunny 59 15.2 38 3.3 45 45 NNE 8 13 30.29 1026 10 16 0.00 0.00
12:55 pm 12:55 Sunny 61 16 40 4.2 46 46 N 9 15 30.28 1025 10 16 0.00 0.00
1:15 pm 13:15 Sunny 61 16.3 40 4.2 45 45 NE 9 15 30.28 1025 10 16 0.00 0.00
1:35 pm 13:35 Sunny 62 16.6 38 3.6 42 42 NE 8 13 30.28 1025 10 16 0.00 0.00
1:55 pm 13:55 Sunny 62 16.8 39 4.1 43 43 NE 8 13 30.28 1025 10 16 0.00 0.00
2:15 pm 14:15 Sunny 64 17.5 40 4.6 43 43 ENE 8 13 30.27 1025 10 16 0.00 0.00
2:35 pm 14:35 Sunny 63 17.1 38 3.3 40 40 N 9 15 30.27 1025 10 16 0.00 0.00
2:55 pm 14:55 Sunny 64 17.6 40 4.4 42 42 E 7 11 30.25 1025 10 16 0.00 0.00
3:15 pm 15:15 Sunny 65 18.2 38 3.4 38 38 E 6 9 30.25 1024 10 16 0.00 0.00
3:35 pm 15:35 Sunny 65 18.1 39 3.8 39 39 E 10 17 30.24 1024 10 16 0.00 0.00
3:55 pm 15:55 Sunny 65 18.3 39 4.1 39 39 NNE 6 9 30.23 1024 10 16 0.00 0.00
4:15 pm 16:15 Sunny 65 18.4 38 3.6 38 38 NNE 6 9 30.23 1024 10 16 0.00 0.00
4:35 pm 16:35 Sunny 66 19.1 39 3.8 36 36 NE 6 9 30.22 1023 10 16 0.00 0.00
4:55 pm 16:55 Sunny 66 19 38 3.4 36 36 E 6 9 30.22 1023 10 16 0.00 0.00
5:15 pm 17:15 Sunny 66 19.1 38 3.6 36 36 E 7 11 30.22 1023 10 16 0.00 0.00
5:35 pm 17:35 Sunny 66 18.9 37 2.8 34 34 Calm 30.22 1023 10 16 0.00 0.00
5:55 pm 17:55 Sunny 67 19.2 37 2.6 33 33 ESE 6 9 30.22 1023 10 16 0.00 0.00
6:15 pm 18:15 Sunny 67 19.3 37 2.9 34 34 NE 5 7 30.22 1023 10 16 0.00 0.00
6:35 pm 18:35 Sunny 67 19.2 38 3.1 35 35 Calm 30.22 1023 10 16 0.00 0.00
6:55 pm 18:55 Sunny 67 19.2 38 3.1 35 35 Calm 30.22 1023 10 16 0.00 0.00
7:15 pm 19:15 Sunny 66 19 37 3 35 35 Calm 30.23 1024 10 16 0.00 0.00
7:35 pm 19:35 Sunny 66 18.8 37 2.5 34 34 Calm 30.23 1024 10 16 0.00 0.00
7:55 pm 19:55 Sunny 66 18.8 36 2.3 33 33 Calm 30.23 1024 10 16 0.00 0.00
8:15 pm 20:15 Sunny 65 18.6 36 2 33 33 Calm 30.24 1024 10 16 0.00 0.00
8:35 pm 20:35 Sunny 66 18.7 38 3.6 37 37 Calm 30.24 1024 10 16 0.00 0.00
8:55 pm 20:55 Sunny 64 17.5 45 7.2 51 51 Calm 30.24 1024 10 16 0.00 0.00
9:15 pm 21:15 Clear 60 15.6 46 7.9 60 60 E 3 6 30.25 1024 10 16 0.00 0.00
9:35 pm 21:35 Clear 58 14.5 47 8.5 67 67 Calm 30.25 1025 10 16 0.00 0.00
9:55 pm 21:55 Clear 56 13.4 48 8.8 74 74 Calm 30.26 1025 10 16 0.00 0.00
10:15 pm 22:15 Clear 56 13.2 46 7.7 70 70 Calm 30.27 1025 10 16 0.00 0.00
10:35 pm 22:35 Clear 54 12 46 7.6 75 75 Calm 30.28 1026 10 16 0.00 0.00
10:55 pm 22:55 Clear 53 11.9 47 8.2 78 78 Calm 30.28 1026 10 16 0.00 0.00
11:15 pm 23:15 Clear 53 11.4 46 8 80 80 Calm 30.29 1026 10 16 0.00 0.00
11:35 pm 23:35 Clear 52 11.2 47 8.5 84 84 Calm 30.28 1025 10 16 0.00 0.00
11:55 pm 23:55 Clear 51 10.7 48 9 89 89 Calm 30.29 1026 10 16 0.00 0.00

Powered by AerisWeather